Location: Honolulu
(21.3069°N, 157.8583°W)
Time: 03:22:35
(UTC-10:00)

Transit 2A Rocket - Pass Details

Date: 11 April 2026
Orbit: 587 x 895 km, 66.7° (Epoch: 18 May)

Event Time Altitude Azimuth Distance (km) Brightness Sun altitude
Exits shadow 03:06:43 15° 17° (NNE) 2,152 7.7 -41.9°
Drops below altitude 10° 03:07:41 10° 18° (NNE) 2,502 8.1 -41.7°
Sets 03:10:07 0° 20° (NNE) 3,409 8.9 -41.2°
